Weather History for Shenandoah, IA

Change the Weather History Date:

Monday, October 8, 2012

  Actual Average Record
Temperature  
Mean Temperature 57 °F -  
Max Temperature 73 °F 70 °F 91 °F (1949)
Min Temperature 41 °F 44 °F 21 °F (2000)
Degree Days  
Heating Degree Days 8    
Growing Degree Days 7 (Base 50)    
Moisture  
Dew Point 28 °F    
Average Humidity 40    
Maximum Humidity 66    
Minimum Humidity 12    
Precipitation  
Precipitation 0.00 in - - ()
Sea Level Pressure  
Sea Level Pressure 29.95 in    
Wind  
Wind Speed 12 mph (SSW)    
Max Wind Speed 23 mph    
Max Gust Speed 34 mph    
Visibility 10 miles    
Events      
Averages and records for this station are not official NWS values.
T = Trace of Precipitation, MM = Missing Value Source: NWS Daily Summary

Daily Weather History Graph

Daily Weather History Graph

Search for Another Location

Airport:

Trip Planner

Search our weather history database for the weather conditions in past years. The results will help you decide how hot, cold, wet, or windy it might be!

Date:

Astronomy

Oct. 08, 2012 Rise Set
Actual Time 7:25 AM CDT 6:51 PM CDT
Civil Twilight 6:58 AM CDT 7:18 PM CDT
Nautical Twilight 6:26 AM CDT 7:50 PM CDT
Astronomical Twilight 5:54 AM CDT 8:22 PM CDT
Moon 12:04 AM CDT (10/8) 2:43 PM CDT (10/8)
Length of Visible Light 12h 20m
Length of Day
11h 25m
Last Quarter, 46% of the Moon is Illuminated
Oct 8
Last Quarter
Oct 15
New
Oct 21
First Quarter
Oct 29
Full
Nov 6
Last Quarter

Hourly Weather History & Observations

Time (CDT) Temp. Windchill Dew Point Humidity Pressure Visibility Wind Dir Wind Speed Gust Speed Precip Events Conditions
12:15 AM 44.6 °F 39.7 °F 30.2 °F 57% 30.07 in 10.0 mi SW 9.2 mph - N/A   Scattered Clouds
12:35 AM 44.6 °F 39.7 °F 30.2 °F 57% 30.07 in 10.0 mi SW 9.2 mph - N/A   Clear
12:55 AM 44.6 °F 39.2 °F 30.2 °F 57% 30.07 in 10.0 mi SW 10.4 mph - N/A   Scattered Clouds
1:15 AM 44.6 °F 39.2 °F 30.2 °F 57% 30.07 in 10.0 mi SW 10.4 mph - N/A   Scattered Clouds
1:35 AM 44.6 °F 39.7 °F 30.2 °F 57% 30.07 in 10.0 mi SW 9.2 mph - N/A   Scattered Clouds
1:55 AM 42.8 °F 38.0 °F 30.2 °F 61% 30.07 in 10.0 mi SW 8.1 mph - N/A   Scattered Clouds
2:15 AM 42.8 °F 38.0 °F 30.2 °F 61% 30.07 in 10.0 mi SW 8.1 mph - N/A   Scattered Clouds
2:35 AM 42.8 °F 38.0 °F 30.2 °F 61% 30.07 in 10.0 mi SW 8.1 mph - N/A   Scattered Clouds
2:55 AM 42.8 °F 38.0 °F 30.2 °F 61% 30.06 in 10.0 mi SW 8.1 mph - N/A   Scattered Clouds
3:15 AM 42.8 °F 38.6 °F 30.2 °F 61% 30.05 in 10.0 mi SW 6.9 mph - N/A   Scattered Clouds
3:35 AM 42.8 °F 39.3 °F 30.2 °F 61% 30.04 in 10.0 mi SW 5.8 mph - N/A   Scattered Clouds
3:55 AM 41.0 °F 36.4 °F 30.2 °F 65% 30.03 in 10.0 mi SW 6.9 mph - N/A   Scattered Clouds
4:15 AM 42.8 °F 38.0 °F 32.0 °F 66% 30.03 in 10.0 mi SW 8.1 mph - N/A   Scattered Clouds
4:35 AM 42.8 °F 39.3 °F 30.2 °F 61% 30.03 in 10.0 mi SW 5.8 mph - N/A   Scattered Clouds
4:55 AM 42.8 °F 38.6 °F 32.0 °F 66% 30.03 in 10.0 mi SW 6.9 mph - N/A   Scattered Clouds
5:35 AM 42.8 °F 37.5 °F 30.2 °F 61% 30.03 in 10.0 mi SW 9.2 mph - N/A   Clear
5:55 AM 42.8 °F 37.5 °F 30.2 °F 61% 30.03 in 10.0 mi SW 9.2 mph - N/A   Clear
6:15 AM 42.8 °F 37.0 °F 30.2 °F 61% 30.03 in 10.0 mi SSW 10.4 mph - N/A   Clear
6:35 AM 42.8 °F 37.5 °F 30.2 °F 61% 30.02 in 10.0 mi SW 9.2 mph - N/A   Scattered Clouds
6:55 AM 41.0 °F 36.4 °F 30.2 °F 65% 30.02 in 10.0 mi SW 6.9 mph - N/A   Scattered Clouds
7:15 AM 41.0 °F 37.1 °F 30.2 °F 65% 30.02 in 10.0 mi SSW 5.8 mph - N/A   Scattered Clouds
7:35 AM 42.8 °F 38.6 °F 32.0 °F 66% 30.02 in 10.0 mi SW 6.9 mph - N/A   Scattered Clouds
7:55 AM 44.6 °F 40.2 °F 32.0 °F 61% 30.02 in 10.0 mi SSW 8.1 mph - N/A   Clear
8:15 AM 44.6 °F 39.7 °F 32.0 °F 61% 30.02 in 10.0 mi SSW 9.2 mph - N/A   Clear
8:35 AM 46.4 °F 41.5 °F 33.8 °F 62% 30.02 in 10.0 mi SSW 10.4 mph - N/A   Clear
8:55 AM 48.2 °F - 33.8 °F 58% 30.02 in 10.0 mi SSW 12.7 mph 19.6 mph N/A   Clear
9:15 AM 48.2 °F - 33.8 °F 58% 30.02 in 10.0 mi SSW 11.5 mph - N/A   Clear
9:35 AM 48.2 °F - 33.8 °F 58% 30.02 in 10.0 mi SSW 15.0 mph 18.4 mph N/A   Clear
9:55 AM 50.0 °F - 33.8 °F 54% 30.02 in 10.0 mi SW 15.0 mph - N/A   Clear
10:15 AM 51.8 °F - 33.8 °F 50% 30.01 in 10.0 mi SSW 13.8 mph - N/A   Clear
10:35 AM 53.6 °F - 33.8 °F 47% 30.00 in 10.0 mi SW 15.0 mph - N/A   Clear
10:55 AM 57.2 °F - 33.8 °F 41% 30.00 in 10.0 mi SSW 12.7 mph 17.3 mph N/A   Clear
11:15 AM 57.2 °F - 32.0 °F 38% 29.99 in 10.0 mi SSW 13.8 mph - N/A   Clear
11:35 AM 60.8 °F - 30.2 °F 31% 29.99 in 10.0 mi SSW 17.3 mph 21.9 mph N/A   Clear
11:55 AM 62.6 °F - 30.2 °F 30% 29.98 in 10.0 mi SSW 19.6 mph - N/A   Clear
12:15 PM 64.4 °F - 28.4 °F 26% 29.97 in 10.0 mi SSW 19.6 mph - N/A   Clear
12:35 PM 64.4 °F - 28.4 °F 26% 29.96 in 10.0 mi SSW 19.6 mph 25.3 mph N/A   Clear
12:55 PM 66.2 °F - 26.6 °F 23% 29.95 in 10.0 mi SW 20.7 mph 27.6 mph N/A   Clear
1:15 PM 66.2 °F - 24.8 °F 21% 29.93 in 10.0 mi SW 19.6 mph 25.3 mph N/A   Clear
1:35 PM 68.0 °F - 24.8 °F 20% 29.92 in 10.0 mi SSW 21.9 mph 28.8 mph N/A   Clear
1:55 PM 69.8 °F - 21.2 °F 16% 29.91 in 10.0 mi SW 20.7 mph - N/A   Clear
2:15 PM 69.8 °F - 21.2 °F 16% 29.90 in 10.0 mi SSW 19.6 mph 31.1 mph N/A   Clear
2:35 PM 71.6 °F - 21.2 °F 15% 29.89 in 10.0 mi SSW 19.6 mph 28.8 mph N/A   Clear
2:55 PM 71.6 °F - 21.2 °F 15% 29.88 in 10.0 mi SW 17.3 mph 26.5 mph N/A   Clear
3:15 PM 71.6 °F - 19.4 °F 14% 29.88 in 10.0 mi SSW 19.6 mph 26.5 mph N/A   Clear
3:35 PM 71.6 °F - 17.6 °F 13% 29.87 in 10.0 mi SW 18.4 mph 26.5 mph N/A   Clear
3:55 PM 73.4 °F - 17.6 °F 12% 29.86 in 10.0 mi SSW 23.0 mph 34.5 mph N/A   Clear
4:15 PM 71.6 °F - 17.6 °F 13% 29.85 in 10.0 mi SSW 17.3 mph 28.8 mph N/A   Clear
4:35 PM 73.4 °F - 17.6 °F 12% 29.85 in 10.0 mi SSW 19.6 mph - N/A   Clear
4:55 PM 73.4 °F - 17.6 °F 12% 29.84 in 10.0 mi SW 18.4 mph 28.8 mph N/A   Clear
5:15 PM 71.6 °F - 17.6 °F 13% 29.85 in 10.0 mi SW 21.9 mph 26.5 mph N/A   Clear
5:35 PM 71.6 °F - 19.4 °F 14% 29.85 in 10.0 mi SSW 19.6 mph 23.0 mph N/A   Clear
5:55 PM 71.6 °F - 19.4 °F 14% 29.84 in 10.0 mi SSW 18.4 mph - N/A   Clear
6:15 PM 69.8 °F - 19.4 °F 15% 29.85 in 10.0 mi SSW 15.0 mph - N/A   Clear
6:35 PM 68.0 °F - 21.2 °F 17% 29.85 in 10.0 mi SSW 13.8 mph - N/A   Clear
6:55 PM 66.2 °F - 23.0 °F 19% 29.85 in 10.0 mi South 11.5 mph - N/A   Clear
7:15 PM 64.4 °F - 23.0 °F 21% 29.85 in 10.0 mi South 11.5 mph - N/A   Scattered Clouds
7:35 PM 64.4 °F - 23.0 °F 21% 29.85 in 10.0 mi South 12.7 mph - N/A   Scattered Clouds
7:55 PM 64.4 °F - 24.8 °F 22% 29.85 in 10.0 mi South 11.5 mph - N/A   Scattered Clouds
8:15 PM 62.6 °F - 24.8 °F 24% 29.85 in 10.0 mi South 10.4 mph - N/A   Clear
8:35 PM 60.8 °F - 26.6 °F 27% 29.86 in 10.0 mi South 10.4 mph - N/A   Clear
8:55 PM 60.8 °F - 28.4 °F 29% 29.86 in 10.0 mi South 12.7 mph - N/A   Scattered Clouds
9:15 PM 59.0 °F - 30.2 °F 34% 29.86 in 10.0 mi South 12.7 mph - N/A   Scattered Clouds
9:35 PM 59.0 °F - 30.2 °F 34% 29.86 in 10.0 mi South 13.8 mph - N/A   Clear
9:55 PM 59.0 °F - 32.0 °F 36% 29.86 in 10.0 mi South 12.7 mph - N/A   Clear
10:15 PM 57.2 °F - 32.0 °F 38% 29.85 in 10.0 mi South 11.5 mph - N/A   Clear
10:55 PM 57.2 °F - 32.0 °F 38% 29.86 in 10.0 mi South 15.0 mph 19.6 mph N/A   Scattered Clouds
11:15 PM 59.0 °F - 32.0 °F 36% 29.85 in 10.0 mi South 17.3 mph 21.9 mph N/A   Scattered Clouds
11:35 PM 59.0 °F - 32.0 °F 36% 29.85 in 10.0 mi SSW 16.1 mph - N/A   Clear
11:55 PM 57.2 °F - 32.0 °F 38% 29.85 in 10.0 mi SSW 16.1 mph 20.7 mph N/A   Scattered Clouds